owner,sensor,date,latitude,longitude,air_temperature,qcFlag 
DISL,ioos:station:DISL:MHPA:1,2013-07-01T00:00:00Z,30.6671,-87.9365,31.05,1111122 
DISL,ioos:station:DISL:MHPA:1,2013-07-01T00:30:00Z,30.6671,-87.9365,30.98,1111122 
DISL,ioos:station:DISL:MHPA:1,2013-07-01T01:00:00Z,30.6671,-87.9365,30.28,1111122 
DISL,ioos:station:DISL:MHPA:1,2013-07-01T01:30:00Z,30.6671,-87.9365,29.78,1111122 
DISL,ioos:station:DISL:MHPA:1,2013-07-01T02:00:00Z,30.6671,-87.9365,29.0,1111122 
DISL,ioos:station:DISL:MHPA:1,2013-07-01T02:30:00Z,30.6671,-87.9365,28.46,1111122 
DISL,ioos:station:DISL:MHPA:1,2013-07-01T03:00:00Z,30.6671,-87.9365,27.7,1111122 
DISL,ioos:station:DISL:MHPA:1,2013-07-01T03:30:00Z,30.6671,-87.9365,26.74,1111122 
DISL,ioos:station:DISL:MHPA:1,2013-07-01T04:00:00Z,30.6671,-87.9365,26.44,1111122 
DISL,ioos:station:DISL:MHPA:1,2013-07-01T04:30:00Z,30.6671,-87.9365,26.44,1111122 
DISL,ioos:station:DISL:MHPA:1,2013-07-01T05:00:00Z,30.6671,-87.9365,26.27,1111122 
DISL,ioos:station:DISL:MHPA:1,2013-07-01T05:30:00Z,30.6671,-87.9365,25.93,1111122 
DISL,ioos:station:DISL:MHPA:1,2013-07-01T06:00:00Z,30.6671,-87.9365,25.73,1111122 
DISL,ioos:station:DISL:MHPA:1,2013-07-01T06:30:00Z,30.6671,-87.9365,25.65,1111122 
DISL,ioos:station:DISL:MHPA:1,2013-07-01T07:00:00Z,30.6671,-87.9365,25.38,1111122 
DISL,ioos:station:DISL:MHPA:1,2013-07-01T07:30:00Z,30.6671,-87.9365,25.3,1111122 
DISL,ioos:station:DISL:MHPA:1,2013-07-01T08:00:00Z,30.6671,-87.9365,25.06,1111122 
DISL,ioos:station:DISL:MHPA:1,2013-07-01T08:30:00Z,30.6671,-87.9365,24.87,1111122 
DISL,ioos:station:DISL:MHPA:1,2013-07-01T09:00:00Z,30.6671,-87.9365,24.61,1111122 
DISL,ioos:station:DISL:MHPA:1,2013-07-01T09:30:00Z,30.6671,-87.9365,24.41,1111122 
DISL,ioos:station:DISL:MHPA:1,2013-07-01T10:00:00Z,30.6671,-87.9365,24.34,1111122 
DISL,ioos:station:DISL:MHPA:1,2013-07-01T10:30:00Z,30.6671,-87.9365,24.09,1111122 
DISL,ioos:station:DISL:MHPA:1,2013-07-01T11:00:00Z,30.6671,-87.9365,23.72,1111122 
DISL,ioos:station:DISL:MHPA:1,2013-07-01T11:30:00Z,30.6671,-87.9365,23.65,1111122 
DISL,ioos:station:DISL:MHPA:1,2013-07-01T12:00:00Z,30.6671,-87.9365,24.07,1111122 
DISL,ioos:station:DISL:MHPA:1,2013-07-01T12:30:00Z,30.6671,-87.9365,24.27,1111122 
DISL,ioos:station:DISL:MHPA:1,2013-07-01T13:00:00Z,30.6671,-87.9365,24.93,1111122 
DISL,ioos:station:DISL:MHPA:1,2013-07-01T13:30:00Z,30.6671,-87.9365,25.29,1111122 
DISL,ioos:station:DISL:MHPA:1,2013-07-01T14:00:00Z,30.6671,-87.9365,25.67,1111122 
DISL,ioos:station:DISL:MHPA:1,2013-07-01T14:30:00Z,30.6671,-87.9365,26.33,1111122 
DISL,ioos:station:DISL:MHPA:1,2013-07-01T15:00:00Z,30.6671,-87.9365,27.2,1111122 
DISL,ioos:station:DISL:MHPA:1,2013-07-01T15:30:00Z,30.6671,-87.9365,27.74,1111122 
DISL,ioos:station:DISL:MHPA:1,2013-07-01T16:00:00Z,30.6671,-87.9365,28.19,1111122 
DISL,ioos:station:DISL:MHPA:1,2013-07-01T16:30:00Z,30.6671,-87.9365,28.47,1111122 
DISL,ioos:station:DISL:MHPA:1,2013-07-01T17:00:00Z,30.6671,-87.9365,28.87,1111122 
DISL,ioos:station:DISL:MHPA:1,2013-07-01T17:30:00Z,30.6671,-87.9365,29.27,1111122 
DISL,ioos:station:DISL:MHPA:1,2013-07-01T18:00:00Z,30.6671,-87.9365,29.5,1111122 
DISL,ioos:station:DISL:MHPA:1,2013-07-01T18:30:00Z,30.6671,-87.9365,29.99,1111122 
DISL,ioos:station:DISL:MHPA:1,2013-07-01T19:00:00Z,30.6671,-87.9365,30.14,1111122 
DISL,ioos:station:DISL:MHPA:1,2013-07-01T19:30:00Z,30.6671,-87.9365,30.51,1111122 
DISL,ioos:station:DISL:MHPA:1,2013-07-01T20:00:00Z,30.6671,-87.9365,30.49,1111122 
DISL,ioos:station:DISL:MHPA:1,2013-07-01T20:30:00Z,30.6671,-87.9365,30.8,1111122 
DISL,ioos:station:DISL:MHPA:1,2013-07-01T21:00:00Z,30.6671,-87.9365,30.22,1111122 
DISL,ioos:station:DISL:MHPA:1,2013-07-01T21:30:00Z,30.6671,-87.9365,31.03,1111122 
DISL,ioos:station:DISL:MHPA:1,2013-07-01T22:00:00Z,30.6671,-87.9365,30.97,1111122 
DISL,ioos:station:DISL:MHPA:1,2013-07-01T22:30:00Z,30.6671,-87.9365,30.08,1111122 
DISL,ioos:station:DISL:MHPA:1,2013-07-01T23:00:00Z,30.6671,-87.9365,29.71,1111122 
DISL,ioos:station:DISL:MHPA:1,2013-07-01T23:30:00Z,30.6671,-87.9365,29.49,1111122 
DISL,ioos:station:DISL:MHPA:1,2013-07-02T00:00:00Z,30.6671,-87.9365,29.47,1111122 
DISL,ioos:station:DISL:MHPA:1,2013-07-02T00:30:00Z,30.6671,-87.9365,29.31,1111122 
DISL,ioos:station:DISL:MHPA:1,2013-07-02T01:00:00Z,30.6671,-87.9365,28.99,1111122 
DISL,ioos:station:DISL:MHPA:1,2013-07-02T01:30:00Z,30.6671,-87.9365,28.55,1111122 
DISL,ioos:station:DISL:MHPA:1,2013-07-02T02:00:00Z,30.6671,-87.9365,28.26,1111122 
DISL,ioos:station:DISL:MHPA:1,2013-07-02T02:30:00Z,30.6671,-87.9365,27.83,1111122 
DISL,ioos:station:DISL:MHPA:1,2013-07-02T03:00:00Z,30.6671,-87.9365,27.63,1111122 
DISL,ioos:station:DISL:MHPA:1,2013-07-02T03:30:00Z,30.6671,-87.9365,27.22,1111122 
DISL,ioos:station:DISL:MHPA:1,2013-07-02T04:00:00Z,30.6671,-87.9365,26.86,1111122 
DISL,ioos:station:DISL:MHPA:1,2013-07-02T04:30:00Z,30.6671,-87.9365,26.75,1111122 
DISL,ioos:station:DISL:MHPA:1,2013-07-02T05:00:00Z,30.6671,-87.9365,26.51,1111122 
DISL,ioos:station:DISL:MHPA:1,2013-07-02T05:30:00Z,30.6671,-87.9365,26.23,1111122 
DISL,ioos:station:DISL:MHPA:1,2013-07-02T06:00:00Z,30.6671,-87.9365,25.59,1111122 
DISL,ioos:station:DISL:MHPA:1,2013-07-02T06:30:00Z,30.6671,-87.9365,25.6,1111122 
DISL,ioos:station:DISL:MHPA:1,2013-07-02T07:00:00Z,30.6671,-87.9365,25.33,1111122 
DISL,ioos:station:DISL:MHPA:1,2013-07-02T07:30:00Z,30.6671,-87.9365,24.93,1111122 
DISL,ioos:station:DISL:MHPA:1,2013-07-02T08:00:00Z,30.6671,-87.9365,24.59,1111122 
DISL,ioos:station:DISL:MHPA:1,2013-07-02T08:30:00Z,30.6671,-87.9365,24.4,1111122 
DISL,ioos:station:DISL:MHPA:1,2013-07-02T09:00:00Z,30.6671,-87.9365,24.34,1111122 
DISL,ioos:station:DISL:MHPA:1,2013-07-02T09:30:00Z,30.6671,-87.9365,24.01,1111122 
DISL,ioos:station:DISL:MHPA:1,2013-07-02T10:00:00Z,30.6671,-87.9365,23.85,1111122 
DISL,ioos:station:DISL:MHPA:1,2013-07-02T10:30:00Z,30.6671,-87.9365,23.81,1111122 
DISL,ioos:station:DISL:MHPA:1,2013-07-02T11:00:00Z,30.6671,-87.9365,23.62,1111122 
DISL,ioos:station:DISL:MHPA:1,2013-07-02T11:30:00Z,30.6671,-87.9365,23.54,1111122 
DISL,ioos:station:DISL:MHPA:1,2013-07-02T12:00:00Z,30.6671,-87.9365,24.13,1111122 
DISL,ioos:station:DISL:MHPA:1,2013-07-02T12:30:00Z,30.6671,-87.9365,24.58,1111122 
DISL,ioos:station:DISL:MHPA:1,2013-07-02T13:00:00Z,30.6671,-87.9365,24.44,1111122 
DISL,ioos:station:DISL:MHPA:1,2013-07-02T13:30:00Z,30.6671,-87.9365,25.28,1111122 
DISL,ioos:station:DISL:MHPA:1,2013-07-02T14:00:00Z,30.6671,-87.9365,26.34,1111122 
DISL,ioos:station:DISL:MHPA:1,2013-07-02T14:30:00Z,30.6671,-87.9365,27.18,1111122 
DISL,ioos:station:DISL:MHPA:1,2013-07-02T15:00:00Z,30.6671,-87.9365,27.81,1111122 
DISL,ioos:station:DISL:MHPA:1,2013-07-02T15:30:00Z,30.6671,-87.9365,28.57,1111122 
DISL,ioos:station:DISL:MHPA:1,2013-07-02T16:00:00Z,30.6671,-87.9365,29.49,1111122 
DISL,ioos:station:DISL:MHPA:1,2013-07-02T16:30:00Z,30.6671,-87.9365,29.31,1111122 
DISL,ioos:station:DISL:MHPA:1,2013-07-02T17:00:00Z,30.6671,-87.9365,29.61,1111122 
DISL,ioos:station:DISL:MHPA:1,2013-07-02T17:30:00Z,30.6671,-87.9365,29.43,1111122 
DISL,ioos:station:DISL:MHPA:1,2013-07-02T18:00:00Z,30.6671,-87.9365,29.47,1111122 
DISL,ioos:station:DISL:MHPA:1,2013-07-02T18:30:00Z,30.6671,-87.9365,29.8,1111122 
DISL,ioos:station:DISL:MHPA:1,2013-07-02T19:00:00Z,30.6671,-87.9365,30.1,1111122 
DISL,ioos:station:DISL:MHPA:1,2013-07-02T19:30:00Z,30.6671,-87.9365,30.21,1111122 
DISL,ioos:station:DISL:MHPA:1,2013-07-02T20:00:00Z,30.6671,-87.9365,30.24,1111122 
DISL,ioos:station:DISL:MHPA:1,2013-07-02T20:30:00Z,30.6671,-87.9365,30.52,1111122 
DISL,ioos:station:DISL:MHPA:1,2013-07-02T21:00:00Z,30.6671,-87.9365,30.68,1111122 
DISL,ioos:station:DISL:MHPA:1,2013-07-02T21:30:00Z,30.6671,-87.9365,30.59,1111122 
DISL,ioos:station:DISL:MHPA:1,2013-07-02T22:00:00Z,30.6671,-87.9365,30.22,1111122 
DISL,ioos:station:DISL:MHPA:1,2013-07-02T22:30:00Z,30.6671,-87.9365,30.21,1111122 
DISL,ioos:station:DISL:MHPA:1,2013-07-02T23:00:00Z,30.6671,-87.9365,30.05,1111122 
DISL,ioos:station:DISL:MHPA:1,2013-07-02T23:30:00Z,30.6671,-87.9365,29.86,1111122 
DISL,ioos:station:DISL:MHPA:1,2013-07-03T00:00:00Z,30.6671,-87.9365,29.43,1111122 
DISL,ioos:station:DISL:MHPA:1,2013-07-03T00:30:00Z,30.6671,-87.9365,29.35,1111122 
DISL,ioos:station:DISL:MHPA:1,2013-07-03T01:00:00Z,30.6671,-87.9365,29.12,1111122 
DISL,ioos:station:DISL:MHPA:1,2013-07-03T01:30:00Z,30.6671,-87.9365,29.16,1111122 
DISL,ioos:station:DISL:MHPA:1,2013-07-03T02:00:00Z,30.6671,-87.9365,29.11,1111122 
DISL,ioos:station:DISL:MHPA:1,2013-07-03T02:30:00Z,30.6671,-87.9365,29.1,1111122 
DISL,ioos:station:DISL:MHPA:1,2013-07-03T03:00:00Z,30.6671,-87.9365,28.97,1111122 
DISL,ioos:station:DISL:MHPA:1,2013-07-03T03:30:00Z,30.6671,-87.9365,27.63,1111122 
DISL,ioos:station:DISL:MHPA:1,2013-07-03T04:00:00Z,30.6671,-87.9365,27.23,1111122 
DISL,ioos:station:DISL:MHPA:1,2013-07-03T04:30:00Z,30.6671,-87.9365,27.09,1111122 
DISL,ioos:station:DISL:MHPA:1,2013-07-03T05:00:00Z,30.6671,-87.9365,26.95,1111122 
DISL,ioos:station:DISL:MHPA:1,2013-07-03T05:30:00Z,30.6671,-87.9365,26.59,1111122 
DISL,ioos:station:DISL:MHPA:1,2013-07-03T06:00:00Z,30.6671,-87.9365,26.32,1111122 
DISL,ioos:station:DISL:MHPA:1,2013-07-03T06:30:00Z,30.6671,-87.9365,26.12,1111122 
DISL,ioos:station:DISL:MHPA:1,2013-07-03T07:00:00Z,30.6671,-87.9365,25.88,1111122 
DISL,ioos:station:DISL:MHPA:1,2013-07-03T07:30:00Z,30.6671,-87.9365,26.05,1111122 
DISL,ioos:station:DISL:MHPA:1,2013-07-03T08:00:00Z,30.6671,-87.9365,25.99,1111122 
DISL,ioos:station:DISL:MHPA:1,2013-07-03T08:30:00Z,30.6671,-87.9365,25.93,1111122 
DISL,ioos:station:DISL:MHPA:1,2013-07-03T09:00:00Z,30.6671,-87.9365,25.84,1111122 
DISL,ioos:station:DISL:MHPA:1,2013-07-03T09:30:00Z,30.6671,-87.9365,25.62,1111122 
DISL,ioos:station:DISL:MHPA:1,2013-07-03T10:00:00Z,30.6671,-87.9365,25.12,1111122 
DISL,ioos:station:DISL:MHPA:1,2013-07-03T10:30:00Z,30.6671,-87.9365,25.06,1111122 
DISL,ioos:station:DISL:MHPA:1,2013-07-03T11:00:00Z,30.6671,-87.9365,24.62,1111122 
DISL,ioos:station:DISL:MHPA:1,2013-07-03T11:30:00Z,30.6671,-87.9365,24.82,1111122 
DISL,ioos:station:DISL:MHPA:1,2013-07-03T12:00:00Z,30.6671,-87.9365,24.99,1111122 
DISL,ioos:station:DISL:MHPA:1,2013-07-03T12:30:00Z,30.6671,-87.9365,25.11,1111122 
DISL,ioos:station:DISL:MHPA:1,2013-07-03T13:00:00Z,30.6671,-87.9365,25.55,1111122 
DISL,ioos:station:DISL:MHPA:1,2013-07-03T13:30:00Z,30.6671,-87.9365,26.58,1111122 
DISL,ioos:station:DISL:MHPA:1,2013-07-03T14:00:00Z,30.6671,-87.9365,27.24,1111122 
DISL,ioos:station:DISL:MHPA:1,2013-07-03T14:30:00Z,30.6671,-87.9365,27.6,1111122 
DISL,ioos:station:DISL:MHPA:1,2013-07-03T15:00:00Z,30.6671,-87.9365,27.76,1111122 
DISL,ioos:station:DISL:MHPA:1,2013-07-03T15:30:00Z,30.6671,-87.9365,28.21,1111122 
DISL,ioos:station:DISL:MHPA:1,2013-07-03T16:00:00Z,30.6671,-87.9365,28.74,1111122 
DISL,ioos:station:DISL:MHPA:1,2013-07-03T16:30:00Z,30.6671,-87.9365,29.03,1111122 
DISL,ioos:station:DISL:MHPA:1,2013-07-03T17:00:00Z,30.6671,-87.9365,28.78,1111122 
DISL,ioos:station:DISL:MHPA:1,2013-07-03T17:30:00Z,30.6671,-87.9365,28.77,1111122 
DISL,ioos:station:DISL:MHPA:1,2013-07-03T18:00:00Z,30.6671,-87.9365,29.62,1111122 
DISL,ioos:station:DISL:MHPA:1,2013-07-03T18:30:00Z,30.6671,-87.9365,29.92,1111122 
DISL,ioos:station:DISL:MHPA:1,2013-07-03T19:00:00Z,30.6671,-87.9365,29.77,1111122 
DISL,ioos:station:DISL:MHPA:1,2013-07-03T19:30:00Z,30.6671,-87.9365,29.78,1111122 
DISL,ioos:station:DISL:MHPA:1,2013-07-03T20:00:00Z,30.6671,-87.9365,27.99,1111122 
DISL,ioos:station:DISL:MHPA:1,2013-07-03T20:30:00Z,30.6671,-87.9365,28.63,1111122 
DISL,ioos:station:DISL:MHPA:1,2013-07-03T21:00:00Z,30.6671,-87.9365,28.64,1111122 
DISL,ioos:station:DISL:MHPA:1,2013-07-03T21:30:00Z,30.6671,-87.9365,27.97,1111122 
DISL,ioos:station:DISL:MHPA:1,2013-07-03T22:00:00Z,30.6671,-87.9365,28.08,1111122 
DISL,ioos:station:DISL:MHPA:1,2013-07-03T22:30:00Z,30.6671,-87.9365,27.94,1111122 
DISL,ioos:station:DISL:MHPA:1,2013-07-03T23:00:00Z,30.6671,-87.9365,27.7,1111122 
DISL,ioos:station:DISL:MHPA:1,2013-07-03T23:30:00Z,30.6671,-87.9365,27.42,1111122 
DISL,ioos:station:DISL:MHPA:1,2013-07-04T00:00:00Z,30.6671,-87.9365,27.3,1111122 
DISL,ioos:station:DISL:MHPA:1,2013-07-04T00:30:00Z,30.6671,-87.9365,26.62,1111122 
DISL,ioos:station:DISL:MHPA:1,2013-07-04T01:00:00Z,30.6671,-87.9365,26.48,1111122 
DISL,ioos:station:DISL:MHPA:1,2013-07-04T01:30:00Z,30.6671,-87.9365,26.2,1111122 
DISL,ioos:station:DISL:MHPA:1,2013-07-04T02:00:00Z,30.6671,-87.9365,25.78,1111122 
DISL,ioos:station:DISL:MHPA:1,2013-07-04T02:30:00Z,30.6671,-87.9365,25.37,1111122 
DISL,ioos:station:DISL:MHPA:1,2013-07-04T03:00:00Z,30.6671,-87.9365,24.82,1111122 
DISL,ioos:station:DISL:MHPA:1,2013-07-04T03:30:00Z,30.6671,-87.9365,24.39,1111122 
DISL,ioos:station:DISL:MHPA:1,2013-07-04T04:00:00Z,30.6671,-87.9365,24.21,1111122 
DISL,ioos:station:DISL:MHPA:1,2013-07-04T04:30:00Z,30.6671,-87.9365,23.92,1111122 
DISL,ioos:station:DISL:MHPA:1,2013-07-04T05:00:00Z,30.6671,-87.9365,23.76,1111122 
DISL,ioos:station:DISL:MHPA:1,2013-07-04T05:30:00Z,30.6671,-87.9365,23.62,1111122 
DISL,ioos:station:DISL:MHPA:1,2013-07-04T06:00:00Z,30.6671,-87.9365,22.96,1111122 
DISL,ioos:station:DISL:MHPA:1,2013-07-04T06:30:00Z,30.6671,-87.9365,22.81,1111122 
DISL,ioos:station:DISL:MHPA:1,2013-07-04T07:00:00Z,30.6671,-87.9365,23.31,1111122 
DISL,ioos:station:DISL:MHPA:1,2013-07-04T07:30:00Z,30.6671,-87.9365,23.5,1111122 
DISL,ioos:station:DISL:MHPA:1,2013-07-04T08:00:00Z,30.6671,-87.9365,23.65,1111122 
DISL,ioos:station:DISL:MHPA:1,2013-07-04T08:30:00Z,30.6671,-87.9365,23.57,1111122 
DISL,ioos:station:DISL:MHPA:1,2013-07-04T09:00:00Z,30.6671,-87.9365,23.56,1111122 
DISL,ioos:station:DISL:MHPA:1,2013-07-04T09:30:00Z,30.6671,-87.9365,23.45,1111122 
DISL,ioos:station:DISL:MHPA:1,2013-07-04T10:00:00Z,30.6671,-87.9365,23.4,1111122 
DISL,ioos:station:DISL:MHPA:1,2013-07-04T10:30:00Z,30.6671,-87.9365,23.38,1111122 
DISL,ioos:station:DISL:MHPA:1,2013-07-04T11:00:00Z,30.6671,-87.9365,23.44,1111122 
DISL,ioos:station:DISL:MHPA:1,2013-07-04T11:30:00Z,30.6671,-87.9365,23.35,1111122 
DISL,ioos:station:DISL:MHPA:1,2013-07-04T12:00:00Z,30.6671,-87.9365,23.24,1111122 
DISL,ioos:station:DISL:MHPA:1,2013-07-04T12:30:00Z,30.6671,-87.9365,23.35,1111122 
DISL,ioos:station:DISL:MHPA:1,2013-07-04T13:00:00Z,30.6671,-87.9365,23.92,1111122 
DISL,ioos:station:DISL:MHPA:1,2013-07-04T13:30:00Z,30.6671,-87.9365,25.04,1111122 
DISL,ioos:station:DISL:MHPA:1,2013-07-04T14:00:00Z,30.6671,-87.9365,25.56,1111122 
DISL,ioos:station:DISL:MHPA:1,2013-07-04T14:30:00Z,30.6671,-87.9365,26.09,1111122 
DISL,ioos:station:DISL:MHPA:1,2013-07-04T15:00:00Z,30.6671,-87.9365,26.44,1111122 
DISL,ioos:station:DISL:MHPA:1,2013-07-04T15:30:00Z,30.6671,-87.9365,27.0,1111122 
DISL,ioos:station:DISL:MHPA:1,2013-07-04T16:00:00Z,30.6671,-87.9365,26.85,1111122 
DISL,ioos:station:DISL:MHPA:1,2013-07-04T16:30:00Z,30.6671,-87.9365,26.74,1111122 
DISL,ioos:station:DISL:MHPA:1,2013-07-04T17:00:00Z,30.6671,-87.9365,26.98,1111122 
DISL,ioos:station:DISL:MHPA:1,2013-07-04T17:30:00Z,30.6671,-87.9365,27.37,1111122 
DISL,ioos:station:DISL:MHPA:1,2013-07-04T18:00:00Z,30.6671,-87.9365,27.04,1111122 
DISL,ioos:station:DISL:MHPA:1,2013-07-04T18:30:00Z,30.6671,-87.9365,27.23,1111122 
DISL,ioos:station:DISL:MHPA:1,2013-07-04T19:00:00Z,30.6671,-87.9365,27.59,1111122 
DISL,ioos:station:DISL:MHPA:1,2013-07-04T19:30:00Z,30.6671,-87.9365,27.84,1111122 
DISL,ioos:station:DISL:MHPA:1,2013-07-04T20:00:00Z,30.6671,-87.9365,28.18,1111122 
DISL,ioos:station:DISL:MHPA:1,2013-07-04T20:30:00Z,30.6671,-87.9365,27.73,1111122 
DISL,ioos:station:DISL:MHPA:1,2013-07-04T21:00:00Z,30.6671,-87.9365,27.3,1111122 
DISL,ioos:station:DISL:MHPA:1,2013-07-04T21:30:00Z,30.6671,-87.9365,27.87,1111122 
DISL,ioos:station:DISL:MHPA:1,2013-07-04T22:00:00Z,30.6671,-87.9365,27.66,1111122 
DISL,ioos:station:DISL:MHPA:1,2013-07-04T22:30:00Z,30.6671,-87.9365,27.39,1111122 
DISL,ioos:station:DISL:MHPA:1,2013-07-04T23:00:00Z,30.6671,-87.9365,26.81,1111122 
DISL,ioos:station:DISL:MHPA:1,2013-07-04T23:30:00Z,30.6671,-87.9365,26.91,1111122 
DISL,ioos:station:DISL:MHPA:1,2013-07-05T00:00:00Z,30.6671,-87.9365,26.63,1111122 
DISL,ioos:station:DISL:MHPA:1,2013-07-05T00:30:00Z,30.6671,-87.9365,26.23,1111122 
DISL,ioos:station:DISL:MHPA:1,2013-07-05T01:00:00Z,30.6671,-87.9365,25.86,1111122 
DISL,ioos:station:DISL:MHPA:1,2013-07-05T01:30:00Z,30.6671,-87.9365,25.67,1111122 
DISL,ioos:station:DISL:MHPA:1,2013-07-05T02:00:00Z,30.6671,-87.9365,25.64,1111122 
DISL,ioos:station:DISL:MHPA:1,2013-07-05T02:30:00Z,30.6671,-87.9365,25.51,1111122 
DISL,ioos:station:DISL:MHPA:1,2013-07-05T03:00:00Z,30.6671,-87.9365,25.59,1111122 
DISL,ioos:station:DISL:MHPA:1,2013-07-05T03:30:00Z,30.6671,-87.9365,25.63,1111122 
DISL,ioos:station:DISL:MHPA:1,2013-07-05T04:00:00Z,30.6671,-87.9365,25.45,1111122 
DISL,ioos:station:DISL:MHPA:1,2013-07-05T04:30:00Z,30.6671,-87.9365,25.12,1111122 
DISL,ioos:station:DISL:MHPA:1,2013-07-05T05:00:00Z,30.6671,-87.9365,25.1,1111122 
DISL,ioos:station:DISL:MHPA:1,2013-07-05T05:30:00Z,30.6671,-87.9365,26.08,1111122 
DISL,ioos:station:DISL:MHPA:1,2013-07-05T06:00:00Z,30.6671,-87.9365,25.92,1111122 
DISL,ioos:station:DISL:MHPA:1,2013-07-05T06:30:00Z,30.6671,-87.9365,27.08,1111122 
DISL,ioos:station:DISL:MHPA:1,2013-07-05T07:00:00Z,30.6671,-87.9365,26.53,1111122 
DISL,ioos:station:DISL:MHPA:1,2013-07-05T07:30:00Z,30.6671,-87.9365,26.08,1111122 
DISL,ioos:station:DISL:MHPA:1,2013-07-05T08:00:00Z,30.6671,-87.9365,25.69,1111122 
DISL,ioos:station:DISL:MHPA:1,2013-07-05T08:30:00Z,30.6671,-87.9365,25.43,1111122 
DISL,ioos:station:DISL:MHPA:1,2013-07-05T09:00:00Z,30.6671,-87.9365,25.09,1111122 
DISL,ioos:station:DISL:MHPA:1,2013-07-05T09:30:00Z,30.6671,-87.9365,24.34,1111122 
DISL,ioos:station:DISL:MHPA:1,2013-07-05T10:00:00Z,30.6671,-87.9365,24.41,1111122 
DISL,ioos:station:DISL:MHPA:1,2013-07-05T10:30:00Z,30.6671,-87.9365,24.45,1111122 
DISL,ioos:station:DISL:MHPA:1,2013-07-05T11:00:00Z,30.6671,-87.9365,24.4,1111122 
DISL,ioos:station:DISL:MHPA:1,2013-07-05T11:30:00Z,30.6671,-87.9365,24.48,1111122 
DISL,ioos:station:DISL:MHPA:1,2013-07-05T12:00:00Z,30.6671,-87.9365,24.58,1111122 
DISL,ioos:station:DISL:MHPA:1,2013-07-05T12:30:00Z,30.6671,-87.9365,24.19,1111122 
DISL,ioos:station:DISL:MHPA:1,2013-07-05T13:00:00Z,30.6671,-87.9365,24.21,1111122 
DISL,ioos:station:DISL:MHPA:1,2013-07-05T13:30:00Z,30.6671,-87.9365,24.35,1111122 
DISL,ioos:station:DISL:MHPA:1,2013-07-05T14:00:00Z,30.6671,-87.9365,24.48,1111122 
DISL,ioos:station:DISL:MHPA:1,2013-07-05T14:30:00Z,30.6671,-87.9365,24.33,1111122 
DISL,ioos:station:DISL:MHPA:1,2013-07-05T15:00:00Z,30.6671,-87.9365,24.24,1111122 
DISL,ioos:station:DISL:MHPA:1,2013-07-05T15:30:00Z,30.6671,-87.9365,24.2,1111122 
DISL,ioos:station:DISL:MHPA:1,2013-07-05T16:00:00Z,30.6671,-87.9365,24.24,1111122 
DISL,ioos:station:DISL:MHPA:1,2013-07-05T16:30:00Z,30.6671,-87.9365,24.17,1111122 
DISL,ioos:station:DISL:MHPA:1,2013-07-05T17:00:00Z,30.6671,-87.9365,24.15,1111122 
DISL,ioos:station:DISL:MHPA:1,2013-07-05T17:30:00Z,30.6671,-87.9365,23.87,1111122 
DISL,ioos:station:DISL:MHPA:1,2013-07-05T18:00:00Z,30.6671,-87.9365,23.78,1111122 
DISL,ioos:station:DISL:MHPA:1,2013-07-05T18:30:00Z,30.6671,-87.9365,24.67,1111122 
DISL,ioos:station:DISL:MHPA:1,2013-07-05T19:00:00Z,30.6671,-87.9365,24.49,1111122 
DISL,ioos:station:DISL:MHPA:1,2013-07-05T19:30:00Z,30.6671,-87.9365,24.67,1111122 
DISL,ioos:station:DISL:MHPA:1,2013-07-05T20:00:00Z,30.6671,-87.9365,25.09,1111122 
DISL,ioos:station:DISL:MHPA:1,2013-07-05T20:30:00Z,30.6671,-87.9365,25.12,1111122 
DISL,ioos:station:DISL:MHPA:1,2013-07-05T21:00:00Z,30.6671,-87.9365,25.04,1111122 
DISL,ioos:station:DISL:MHPA:1,2013-07-05T21:30:00Z,30.6671,-87.9365,24.61,1111122 
DISL,ioos:station:DISL:MHPA:1,2013-07-05T22:00:00Z,30.6671,-87.9365,24.28,1111122 
DISL,ioos:station:DISL:MHPA:1,2013-07-05T22:30:00Z,30.6671,-87.9365,24.22,1111122 
DISL,ioos:station:DISL:MHPA:1,2013-07-05T23:00:00Z,30.6671,-87.9365,24.0,1111122 
DISL,ioos:station:DISL:MHPA:1,2013-07-05T23:30:00Z,30.6671,-87.9365,23.82,1111122 
DISL,ioos:station:DISL:MHPA:1,2013-07-06T00:00:00Z,30.6671,-87.9365,23.07,1111122 
DISL,ioos:station:DISL:MHPA:1,2013-07-06T00:30:00Z,30.6671,-87.9365,22.88,1111122 
DISL,ioos:station:DISL:MHPA:1,2013-07-06T01:00:00Z,30.6671,-87.9365,22.97,1111122 
DISL,ioos:station:DISL:MHPA:1,2013-07-06T01:30:00Z,30.6671,-87.9365,23.07,1111122 
DISL,ioos:station:DISL:MHPA:1,2013-07-06T02:00:00Z,30.6671,-87.9365,23.32,1111122 
DISL,ioos:station:DISL:MHPA:1,2013-07-06T02:30:00Z,30.6671,-87.9365,23.28,1111122 
DISL,ioos:station:DISL:MHPA:1,2013-07-06T03:00:00Z,30.6671,-87.9365,23.14,1111122 
DISL,ioos:station:DISL:MHPA:1,2013-07-06T03:30:00Z,30.6671,-87.9365,23.06,1111122 
DISL,ioos:station:DISL:MHPA:1,2013-07-06T04:00:00Z,30.6671,-87.9365,23.18,1111122 
DISL,ioos:station:DISL:MHPA:1,2013-07-06T04:30:00Z,30.6671,-87.9365,23.24,1111122 
DISL,ioos:station:DISL:MHPA:1,2013-07-06T05:00:00Z,30.6671,-87.9365,23.09,1111122 
DISL,ioos:station:DISL:MHPA:1,2013-07-06T05:30:00Z,30.6671,-87.9365,22.88,1111122 
DISL,ioos:station:DISL:MHPA:1,2013-07-06T06:00:00Z,30.6671,-87.9365,22.81,1111122 
DISL,ioos:station:DISL:MHPA:1,2013-07-06T06:30:00Z,30.6671,-87.9365,22.73,1111122 
DISL,ioos:station:DISL:MHPA:1,2013-07-06T07:00:00Z,30.6671,-87.9365,22.64,1111122 
DISL,ioos:station:DISL:MHPA:1,2013-07-06T07:30:00Z,30.6671,-87.9365,22.55,1111122 
DISL,ioos:station:DISL:MHPA:1,2013-07-06T08:00:00Z,30.6671,-87.9365,22.39,1111122 
DISL,ioos:station:DISL:MHPA:1,2013-07-06T08:30:00Z,30.6671,-87.9365,22.38,1111122 
DISL,ioos:station:DISL:MHPA:1,2013-07-06T09:00:00Z,30.6671,-87.9365,22.36,1111122 
DISL,ioos:station:DISL:MHPA:1,2013-07-06T09:30:00Z,30.6671,-87.9365,22.3,1111122 
DISL,ioos:station:DISL:MHPA:1,2013-07-06T10:00:00Z,30.6671,-87.9365,22.36,1111122 
DISL,ioos:station:DISL:MHPA:1,2013-07-06T10:30:00Z,30.6671,-87.9365,22.38,1111122 
DISL,ioos:station:DISL:MHPA:1,2013-07-06T11:00:00Z,30.6671,-87.9365,22.44,1111122 
DISL,ioos:station:DISL:MHPA:1,2013-07-06T11:30:00Z,30.6671,-87.9365,22.57,1111122 
DISL,ioos:station:DISL:MHPA:1,2013-07-06T12:00:00Z,30.6671,-87.9365,22.66,1111122 
DISL,ioos:station:DISL:MHPA:1,2013-07-06T12:30:00Z,30.6671,-87.9365,22.92,1111122 
DISL,ioos:station:DISL:MHPA:1,2013-07-06T13:00:00Z,30.6671,-87.9365,23.1,1111122 
DISL,ioos:station:DISL:MHPA:1,2013-07-06T13:30:00Z,30.6671,-87.9365,23.15,1111122 
DISL,ioos:station:DISL:MHPA:1,2013-07-06T14:00:00Z,30.6671,-87.9365,22.97,1111122 
DISL,ioos:station:DISL:MHPA:1,2013-07-06T14:30:00Z,30.6671,-87.9365,22.82,1111122 
DISL,ioos:station:DISL:MHPA:1,2013-07-06T15:00:00Z,30.6671,-87.9365,22.76,1111122 
DISL,ioos:station:DISL:MHPA:1,2013-07-06T15:30:00Z,30.6671,-87.9365,22.8,1111122 
DISL,ioos:station:DISL:MHPA:1,2013-07-06T16:00:00Z,30.6671,-87.9365,23.18,1111122 
DISL,ioos:station:DISL:MHPA:1,2013-07-06T16:30:00Z,30.6671,-87.9365,23.39,1111122 
DISL,ioos:station:DISL:MHPA:1,2013-07-06T17:00:00Z,30.6671,-87.9365,23.55,1111122 
DISL,ioos:station:DISL:MHPA:1,2013-07-06T17:30:00Z,30.6671,-87.9365,23.55,1111122 
DISL,ioos:station:DISL:MHPA:1,2013-07-06T18:00:00Z,30.6671,-87.9365,23.88,1111122 
DISL,ioos:station:DISL:MHPA:1,2013-07-06T18:30:00Z,30.6671,-87.9365,24.21,1111122 
DISL,ioos:station:DISL:MHPA:1,2013-07-06T19:00:00Z,30.6671,-87.9365,24.23,1111122 
DISL,ioos:station:DISL:MHPA:1,2013-07-06T19:30:00Z,30.6671,-87.9365,24.52,1111122 
DISL,ioos:station:DISL:MHPA:1,2013-07-06T20:00:00Z,30.6671,-87.9365,25.21,1111122 
DISL,ioos:station:DISL:MHPA:1,2013-07-06T20:30:00Z,30.6671,-87.9365,25.78,1111122 
DISL,ioos:station:DISL:MHPA:1,2013-07-06T21:00:00Z,30.6671,-87.9365,26.38,1111122 
DISL,ioos:station:DISL:MHPA:1,2013-07-06T21:30:00Z,30.6671,-87.9365,26.6,1111122 
DISL,ioos:station:DISL:MHPA:1,2013-07-06T22:00:00Z,30.6671,-87.9365,26.62,1111122 
DISL,ioos:station:DISL:MHPA:1,2013-07-06T22:30:00Z,30.6671,-87.9365,26.45,1111122 
DISL,ioos:station:DISL:MHPA:1,2013-07-06T23:00:00Z,30.6671,-87.9365,25.9,1111122 
DISL,ioos:station:DISL:MHPA:1,2013-07-06T23:30:00Z,30.6671,-87.9365,25.87,1111122 